Torna al catalogo

STARLINK-33680

AttivoComunicazioniVLEO
NORAD 63287·PAYLOAD·🇺🇸 United States

Lanciato Mar 15, 2025 da Cape Canaveral Space Force Station

Loading…

Prossimi Passaggi (prossime 24 ore)

TLE

AggiornatoSource: CelesTrak SupGP

Epoca: Sep 15, 2026, 03:19 UTC

1 63287C 25053Y   26258.13868056 -.00019787  00000+0 -71684-3 0  2581
2 63287  43.0003 251.5468 0001208 265.5365 356.2333 15.27580839    16

Traccia STARLINK-33680 in tempo reale con AllMySat

Download on the App Store